Time,TemperatureF,DewpointF,PressureIn,WindDirection,WindDirectionDegrees,WindSpeedMPH,WindSpeedGustMPH,Humidity,HourlyPrecipIn,Conditions,Clouds,dailyrainin,SoftwareType,DateUTC
2013-03-02 00:01:00,26.0,22.0,30.18,North,-999,-999.0,-999.0,83,-99.99,,,-99.99,,2013-03-02 06:01:00,
2013-03-02 00:11:00,27.0,22.0,30.18,North,-999,-999.0,-999.0,83,-99.99,,,-99.99,,2013-03-02 06:11:00,
2013-03-02 00:21:00,27.0,22.0,30.18,North,-999,-999.0,-999.0,83,-99.99,,,-99.99,,2013-03-02 06:21:00,
2013-03-02 00:32:00,27.0,22.0,30.18,North,-999,-999.0,-999.0,82,-99.99,,,-99.99,,2013-03-02 06:32:00,
2013-03-02 00:42:00,27.0,22.0,30.18,North,-999,-999.0,-999.0,82,-99.99,,,-99.99,,2013-03-02 06:42:00,
2013-03-02 00:52:00,27.0,22.0,30.18,North,-999,-999.0,-999.0,82,-99.99,,,-99.99,,2013-03-02 06:52:00,
2013-03-02 01:01:00,27.0,22.0,30.18,North,-999,-999.0,-999.0,82,-99.99,,,-99.99,,2013-03-02 07:01:00,
2013-03-02 01:11:00,26.0,22.0,30.18,North,-999,-999.0,-999.0,82,-99.99,,,-99.99,,2013-03-02 07:11:00,
2013-03-02 01:21:00,26.0,22.0,30.18,North,-999,-999.0,-999.0,82,-99.99,,,-99.99,,2013-03-02 07:21:00,
2013-03-02 01:32:00,26.0,22.0,30.18,North,-999,-999.0,-999.0,82,-99.99,,,-99.99,,2013-03-02 07:32:00,
2013-03-02 01:42:00,26.0,22.0,30.19,North,-999,-999.0,-999.0,82,-99.99,,,-99.99,,2013-03-02 07:42:00,
2013-03-02 01:51:00,26.0,22.0,30.19,North,-999,-999.0,-999.0,82,-99.99,,,-99.99,,2013-03-02 07:51:00,
2013-03-02 02:01:00,26.0,22.0,30.19,North,-999,-999.0,-999.0,82,-99.99,,,-99.99,,2013-03-02 08:01:00,
2013-03-02 02:11:00,26.0,22.0,30.19,North,-999,-999.0,-999.0,82,-99.99,,,-99.99,,2013-03-02 08:11:00,
2013-03-02 02:22:00,26.0,22.0,30.19,North,-999,-999.0,-999.0,82,-99.99,,,-99.99,,2013-03-02 08:22:00,
2013-03-02 02:32:00,26.0,21.0,30.19,North,-999,-999.0,-999.0,81,-99.99,,,-99.99,,2013-03-02 08:32:00,
2013-03-02 02:42:00,26.0,21.0,30.19,North,-999,-999.0,-999.0,81,-99.99,,,-99.99,,2013-03-02 08:42:00,
2013-03-02 02:52:00,26.0,21.0,30.19,North,-999,-999.0,-999.0,81,-99.99,,,-99.99,,2013-03-02 08:52:00,
2013-03-02 03:02:00,26.0,21.0,30.19,North,-999,-999.0,-999.0,81,-99.99,,,-99.99,,2013-03-02 09:02:00,
2013-03-02 03:11:00,26.0,21.0,30.19,North,-999,-999.0,-999.0,80,-99.99,,,-99.99,,2013-03-02 09:11:00,
2013-03-02 03:21:00,26.0,21.0,30.19,North,-999,-999.0,-999.0,80,-99.99,,,-99.99,,2013-03-02 09:21:00,
2013-03-02 03:32:00,26.0,20.0,30.18,North,-999,-999.0,-999.0,80,-99.99,,,-99.99,,2013-03-02 09:32:00,
2013-03-02 03:42:00,26.0,20.0,30.18,North,-999,-999.0,-999.0,80,-99.99,,,-99.99,,2013-03-02 09:42:00,
2013-03-02 03:51:00,26.0,20.0,30.18,North,-999,-999.0,-999.0,79,-99.99,,,-99.99,,2013-03-02 09:51:00,
2013-03-02 04:01:00,26.0,20.0,30.18,North,-999,-999.0,-999.0,79,-99.99,,,-99.99,,2013-03-02 10:01:00,
2013-03-02 04:16:00,26.0,20.0,30.17,North,-999,-999.0,-999.0,79,-99.99,,,-99.99,,2013-03-02 10:16:00,
2013-03-02 04:22:00,26.0,20.0,30.17,North,-999,-999.0,-999.0,79,-99.99,,,-99.99,,2013-03-02 10:22:00,
2013-03-02 04:32:00,25.0,20.0,30.18,North,-999,-999.0,-999.0,79,-99.99,,,-99.99,,2013-03-02 10:32:00,
2013-03-02 04:42:00,25.0,20.0,30.18,North,-999,-999.0,-999.0,79,-99.99,,,-99.99,,2013-03-02 10:42:00,
2013-03-02 04:52:00,25.0,20.0,30.18,North,-999,-999.0,-999.0,79,-99.99,,,-99.99,,2013-03-02 10:52:00,
2013-03-02 05:01:00,25.0,20.0,30.18,North,-999,-999.0,-999.0,80,-99.99,,,-99.99,,2013-03-02 11:01:00,
2013-03-02 05:11:00,25.0,20.0,30.18,North,-999,-999.0,-999.0,80,-99.99,,,-99.99,,2013-03-02 11:11:00,
2013-03-02 05:21:00,25.0,20.0,30.18,North,-999,-999.0,-999.0,80,-99.99,,,-99.99,,2013-03-02 11:21:00,
2013-03-02 05:32:00,25.0,20.0,30.19,North,-999,-999.0,-999.0,80,-99.99,,,-99.99,,2013-03-02 11:32:00,
2013-03-02 05:42:00,25.0,19.0,30.19,North,-999,-999.0,-999.0,79,-99.99,,,-99.99,,2013-03-02 11:42:00,
2013-03-02 05:52:00,25.0,16.0,30.19,North,-999,-999.0,-999.0,67,-99.99,,,-99.99,,2013-03-02 11:52:00,
2013-03-02 06:02:00,25.0,16.0,30.19,North,-999,-999.0,-999.0,67,-99.99,,,-99.99,,2013-03-02 12:02:00,
2013-03-02 06:11:00,25.0,15.0,30.19,North,-999,-999.0,-999.0,66,-99.99,,,-99.99,,2013-03-02 12:11:00,
2013-03-02 06:21:00,25.0,15.0,30.19,North,-999,-999.0,-999.0,66,-99.99,,,-99.99,,2013-03-02 12:21:00,
2013-03-02 06:33:00,25.0,17.0,30.20,North,-999,-999.0,-999.0,70,-99.99,,,-99.99,,2013-03-02 12:33:00,
2013-03-02 06:43:00,25.0,17.0,30.20,North,-999,-999.0,-999.0,72,-99.99,,,-99.99,,2013-03-02 12:43:00,
2013-03-02 06:53:00,25.0,17.0,30.20,North,-999,-999.0,-999.0,72,-99.99,,,-99.99,,2013-03-02 12:53:00,
2013-03-02 07:01:00,25.0,18.0,30.20,North,-999,-999.0,-999.0,74,-99.99,,,-99.99,,2013-03-02 13:01:00,
2013-03-02 07:11:00,25.0,18.0,30.20,North,-999,-999.0,-999.0,74,-99.99,,,-99.99,,2013-03-02 13:11:00,
2013-03-02 07:22:00,25.0,18.0,30.20,North,-999,-999.0,-999.0,74,-99.99,,,-99.99,,2013-03-02 13:22:00,
2013-03-02 07:32:00,24.0,17.0,30.22,North,-999,-999.0,-999.0,72,-99.99,,,-99.99,,2013-03-02 13:32:00,
2013-03-02 07:42:00,25.0,17.0,30.22,North,-999,-999.0,-999.0,72,-99.99,,,-99.99,,2013-03-02 13:42:00,
2013-03-02 07:52:00,25.0,17.0,30.22,North,-999,-999.0,-999.0,72,-99.99,,,-99.99,,2013-03-02 13:52:00,
2013-03-02 08:01:00,24.0,16.0,30.22,North,-999,-999.0,-999.0,70,-99.99,,,-99.99,,2013-03-02 14:01:00,
2013-03-02 08:11:00,24.0,16.0,30.23,North,-999,-999.0,-999.0,69,-99.99,,,-99.99,,2013-03-02 14:11:00,
2013-03-02 08:21:00,24.0,16.0,30.23,North,-999,-999.0,-999.0,69,-99.99,,,-99.99,,2013-03-02 14:21:00,
2013-03-02 08:32:00,24.0,16.0,30.23,North,-999,-999.0,-999.0,70,-99.99,,,-99.99,,2013-03-02 14:32:00,
2013-03-02 08:42:00,24.0,16.0,30.24,North,-999,-999.0,-999.0,69,-99.99,,,-99.99,,2013-03-02 14:42:00,
2013-03-02 08:52:00,24.0,16.0,30.24,North,-999,-999.0,-999.0,69,-99.99,,,-99.99,,2013-03-02 14:52:00,
2013-03-02 09:02:00,25.0,16.0,30.24,North,-999,-999.0,-999.0,70,-99.99,,,-99.99,,2013-03-02 15:02:00,
2013-03-02 09:11:00,24.0,16.0,30.24,North,-999,-999.0,-999.0,71,-99.99,,,-99.99,,2013-03-02 15:11:00,
2013-03-02 09:21:00,24.0,16.0,30.24,North,-999,-999.0,-999.0,71,-99.99,,,-99.99,,2013-03-02 15:21:00,
2013-03-02 09:32:00,24.0,16.0,30.25,North,-999,-999.0,-999.0,69,-99.99,,,-99.99,,2013-03-02 15:32:00,
2013-03-02 09:42:00,24.0,15.0,30.24,North,-999,-999.0,-999.0,68,-99.99,,,-99.99,,2013-03-02 15:42:00,
2013-03-02 09:52:00,24.0,15.0,30.24,North,-999,-999.0,-999.0,68,-99.99,,,-99.99,,2013-03-02 15:52:00,
2013-03-02 10:02:00,24.0,15.0,30.25,North,-999,-999.0,-999.0,67,-99.99,,,-99.99,,2013-03-02 16:02:00,
2013-03-02 10:11:00,24.0,15.0,30.25,North,-999,-999.0,-999.0,67,-99.99,,,-99.99,,2013-03-02 16:11:00,
2013-03-02 10:21:00,24.0,15.0,30.25,North,-999,-999.0,-999.0,67,-99.99,,,-99.99,,2013-03-02 16:21:00,
2013-03-02 10:32:00,24.0,15.0,30.25,North,-999,-999.0,-999.0,68,-99.99,,,-99.99,,2013-03-02 16:32:00,
2013-03-02 10:42:00,24.0,15.0,30.25,North,-999,-999.0,-999.0,68,-99.99,,,-99.99,,2013-03-02 16:42:00,
2013-03-02 10:52:00,24.0,15.0,30.25,North,-999,-999.0,-999.0,68,-99.99,,,-99.99,,2013-03-02 16:52:00,
2013-03-02 11:01:00,25.0,15.0,30.25,North,-999,-999.0,-999.0,67,-99.99,,,-99.99,,2013-03-02 17:01:00,
2013-03-02 11:11:00,25.0,15.0,30.25,North,-999,-999.0,-999.0,67,-99.99,,,-99.99,,2013-03-02 17:11:00,
2013-03-02 11:21:00,25.0,15.0,30.25,North,-999,-999.0,-999.0,67,-99.99,,,-99.99,,2013-03-02 17:21:00,
2013-03-02 11:32:00,25.0,16.0,30.26,North,-999,-999.0,-999.0,67,-99.99,,,-99.99,,2013-03-02 17:32:00,
2013-03-02 11:42:00,25.0,15.0,30.26,North,-999,-999.0,-999.0,66,-99.99,,,-99.99,,2013-03-02 17:42:00,
2013-03-02 11:52:00,25.0,15.0,30.26,North,-999,-999.0,-999.0,66,-99.99,,,-99.99,,2013-03-02 17:52:00,
2013-03-02 12:02:00,26.0,17.0,30.26,North,-999,-999.0,-999.0,68,-99.99,,,-99.99,,2013-03-02 18:02:00,
2013-03-02 12:11:00,25.0,16.0,30.25,North,-999,-999.0,-999.0,67,-99.99,,,-99.99,,2013-03-02 18:11:00,
2013-03-02 12:22:00,25.0,16.0,30.25,North,-999,-999.0,-999.0,67,-99.99,,,-99.99,,2013-03-02 18:22:00,
2013-03-02 12:32:00,26.0,16.0,30.25,North,-999,-999.0,-999.0,65,-99.99,,,-99.99,,2013-03-02 18:32:00,
2013-03-02 12:42:00,26.0,17.0,30.25,North,-999,-999.0,-999.0,66,-99.99,,,-99.99,,2013-03-02 18:42:00,
2013-03-02 12:52:00,27.0,17.0,30.24,North,-999,-999.0,-999.0,65,-99.99,,,-99.99,,2013-03-02 18:52:00,
2013-03-02 13:01:00,27.0,17.0,30.24,North,-999,-999.0,-999.0,65,-99.99,,,-99.99,,2013-03-02 19:01:00,
2013-03-02 13:11:00,27.0,18.0,30.25,North,-999,-999.0,-999.0,66,-99.99,,,-99.99,,2013-03-02 19:11:00,
2013-03-02 13:22:00,27.0,18.0,30.25,North,-999,-999.0,-999.0,66,-99.99,,,-99.99,,2013-03-02 19:22:00,
2013-03-02 13:32:00,28.0,17.0,30.24,North,-999,-999.0,-999.0,63,-99.99,,,-99.99,,2013-03-02 19:32:00,
2013-03-02 13:42:00,28.0,18.0,30.23,North,-999,-999.0,-999.0,65,-99.99,,,-99.99,,2013-03-02 19:42:00,
2013-03-02 13:52:00,28.0,18.0,30.23,North,-999,-999.0,-999.0,65,-99.99,,,-99.99,,2013-03-02 19:52:00,
2013-03-02 14:01:00,28.0,17.0,30.22,North,-999,-999.0,-999.0,61,-99.99,,,-99.99,,2013-03-02 20:01:00,
2013-03-02 14:11:00,29.0,19.0,30.22,North,-999,-999.0,-999.0,65,-99.99,,,-99.99,,2013-03-02 20:11:00,
2013-03-02 14:22:00,29.0,19.0,30.22,North,-999,-999.0,-999.0,65,-99.99,,,-99.99,,2013-03-02 20:22:00,
2013-03-02 14:32:00,29.0,18.0,30.22,North,-999,-999.0,-999.0,61,-99.99,,,-99.99,,2013-03-02 20:32:00,
2013-03-02 14:42:00,30.0,19.0,30.22,North,-999,-999.0,-999.0,61,-99.99,,,-99.99,,2013-03-02 20:42:00,
2013-03-02 14:52:00,30.0,19.0,30.22,North,-999,-999.0,-999.0,61,-99.99,,,-99.99,,2013-03-02 20:52:00,
2013-03-02 15:02:00,30.0,20.0,30.22,North,-999,-999.0,-999.0,64,-99.99,,,-99.99,,2013-03-02 21:02:00,
2013-03-02 15:11:00,31.0,20.0,30.22,North,-999,-999.0,-999.0,61,-99.99,,,-99.99,,2013-03-02 21:11:00,
2013-03-02 15:22:00,31.0,20.0,30.22,North,-999,-999.0,-999.0,61,-99.99,,,-99.99,,2013-03-02 21:22:00,
2013-03-02 15:32:00,33.0,20.0,30.21,North,-999,-999.0,-999.0,59,-99.99,,,-99.99,,2013-03-02 21:32:00,
2013-03-02 15:42:00,31.0,18.0,30.21,North,-999,-999.0,-999.0,60,-99.99,,,-99.99,,2013-03-02 21:42:00,
2013-03-02 15:52:00,31.0,19.0,30.21,North,-999,-999.0,-999.0,61,-99.99,,,-99.99,,2013-03-02 21:52:00,
2013-03-02 16:02:00,31.0,19.0,30.21,North,-999,-999.0,-999.0,61,-99.99,,,-99.99,,2013-03-02 22:02:00,
2013-03-02 16:11:00,32.0,20.0,30.21,North,-999,-999.0,-999.0,62,-99.99,,,-99.99,,2013-03-02 22:11:00,
2013-03-02 16:22:00,32.0,20.0,30.21,North,-999,-999.0,-999.0,62,-99.99,,,-99.99,,2013-03-02 22:22:00,
2013-03-02 16:32:00,29.0,17.0,30.21,North,-999,-999.0,-999.0,60,-99.99,,,-99.99,,2013-03-02 22:32:00,
2013-03-02 16:42:00,32.0,19.0,30.21,North,-999,-999.0,-999.0,59,-99.99,,,-99.99,,2013-03-02 22:42:00,
2013-03-02 16:51:00,32.0,19.0,30.21,North,-999,-999.0,-999.0,59,-99.99,,,-99.99,,2013-03-02 22:51:00,
2013-03-02 17:01:00,31.0,19.0,30.20,North,-999,-999.0,-999.0,62,-99.99,,,-99.99,,2013-03-02 23:01:00,
2013-03-02 17:11:00,31.0,19.0,30.21,North,-999,-999.0,-999.0,60,-99.99,,,-99.99,,2013-03-02 23:11:00,
2013-03-02 17:21:00,31.0,19.0,30.21,North,-999,-999.0,-999.0,60,-99.99,,,-99.99,,2013-03-02 23:21:00,
2013-03-02 17:32:00,30.0,18.0,30.21,North,-999,-999.0,-999.0,60,-99.99,,,-99.99,,2013-03-02 23:32:00,
2013-03-02 17:42:00,31.0,18.0,30.21,North,-999,-999.0,-999.0,57,-99.99,,,-99.99,,2013-03-02 23:42:00,
2013-03-02 17:52:00,31.0,18.0,30.21,North,-999,-999.0,-999.0,57,-99.99,,,-99.99,,2013-03-02 23:52:00,
2013-03-02 18:02:00,30.0,19.0,30.20,North,-999,-999.0,-999.0,63,-99.99,,,-99.99,,2013-03-03 00:02:00,
2013-03-02 18:11:00,29.0,18.0,30.20,North,-999,-999.0,-999.0,62,-99.99,,,-99.99,,2013-03-03 00:11:00,
2013-03-02 18:22:00,29.0,18.0,30.20,North,-999,-999.0,-999.0,62,-99.99,,,-99.99,,2013-03-03 00:22:00,
2013-03-02 18:32:00,29.0,18.0,30.20,North,-999,-999.0,-999.0,63,-99.99,,,-99.99,,2013-03-03 00:32:00,
2013-03-02 18:42:00,28.0,18.0,30.20,North,-999,-999.0,-999.0,64,-99.99,,,-99.99,,2013-03-03 00:42:00,
2013-03-02 18:52:00,28.0,18.0,30.20,North,-999,-999.0,-999.0,64,-99.99,,,-99.99,,2013-03-03 00:52:00,
2013-03-02 19:01:00,28.0,18.0,30.20,North,-999,-999.0,-999.0,66,-99.99,,,-99.99,,2013-03-03 01:01:00,
2013-03-02 19:11:00,27.0,17.0,30.20,North,-999,-999.0,-999.0,66,-99.99,,,-99.99,,2013-03-03 01:11:00,
2013-03-02 19:21:00,27.0,17.0,30.20,North,-999,-999.0,-999.0,66,-99.99,,,-99.99,,2013-03-03 01:21:00,
2013-03-02 19:32:00,27.0,17.0,30.20,North,-999,-999.0,-999.0,67,-99.99,,,-99.99,,2013-03-03 01:32:00,
2013-03-02 19:42:00,27.0,17.0,30.20,North,-999,-999.0,-999.0,66,-99.99,,,-99.99,,2013-03-03 01:42:00,
2013-03-02 19:52:00,27.0,17.0,30.20,North,-999,-999.0,-999.0,66,-99.99,,,-99.99,,2013-03-03 01:52:00,
2013-03-02 20:01:00,27.0,17.0,30.20,North,-999,-999.0,-999.0,67,-99.99,,,-99.99,,2013-03-03 02:01:00,
2013-03-02 20:11:00,27.0,18.0,30.19,North,-999,-999.0,-999.0,68,-99.99,,,-99.99,,2013-03-03 02:11:00,
2013-03-02 20:21:00,27.0,18.0,30.19,North,-999,-999.0,-999.0,68,-99.99,,,-99.99,,2013-03-03 02:21:00,
2013-03-02 20:32:00,27.0,17.0,30.19,North,-999,-999.0,-999.0,66,-99.99,,,-99.99,,2013-03-03 02:32:00,
2013-03-02 20:42:00,26.0,16.0,30.19,North,-999,-999.0,-999.0,67,-99.99,,,-99.99,,2013-03-03 02:42:00,
2013-03-02 20:52:00,26.0,16.0,30.19,North,-999,-999.0,-999.0,67,-99.99,,,-99.99,,2013-03-03 02:52:00,
2013-03-02 21:01:00,26.0,17.0,30.17,North,-999,-999.0,-999.0,68,-99.99,,,-99.99,,2013-03-03 03:01:00,
2013-03-02 21:11:00,26.0,17.0,30.17,North,-999,-999.0,-999.0,68,-99.99,,,-99.99,,2013-03-03 03:11:00,
2013-03-02 21:21:00,26.0,17.0,30.17,North,-999,-999.0,-999.0,68,-99.99,,,-99.99,,2013-03-03 03:21:00,
2013-03-02 21:32:00,26.0,17.0,30.17,North,-999,-999.0,-999.0,67,-99.99,,,-99.99,,2013-03-03 03:32:00,
2013-03-02 21:42:00,26.0,17.0,30.17,North,-999,-999.0,-999.0,67,-99.99,,,-99.99,,2013-03-03 03:42:00,
2013-03-02 21:51:00,26.0,17.0,30.17,North,-999,-999.0,-999.0,67,-99.99,,,-99.99,,2013-03-03 03:51:00,
2013-03-02 22:01:00,26.0,17.0,30.17,North,-999,-999.0,-999.0,67,-99.99,,,-99.99,,2013-03-03 04:01:00,
2013-03-02 22:11:00,26.0,17.0,30.17,North,-999,-999.0,-999.0,67,-99.99,,,-99.99,,2013-03-03 04:11:00,
2013-03-02 22:21:00,26.0,17.0,30.17,North,-999,-999.0,-999.0,67,-99.99,,,-99.99,,2013-03-03 04:21:00,
2013-03-02 22:32:00,25.0,17.0,30.17,North,-999,-999.0,-999.0,73,-99.99,,,-99.99,,2013-03-03 04:32:00,
2013-03-02 22:42:00,25.0,17.0,30.16,North,-999,-999.0,-999.0,72,-99.99,,,-99.99,,2013-03-03 04:42:00,
2013-03-02 22:51:00,25.0,17.0,30.16,North,-999,-999.0,-999.0,72,-99.99,,,-99.99,,2013-03-03 04:51:00,
2013-03-02 23:02:00,25.0,17.0,30.17,North,-999,-999.0,-999.0,70,-99.99,,,-99.99,,2013-03-03 05:02:00,
2013-03-02 23:11:00,24.0,16.0,30.16,North,-999,-999.0,-999.0,71,-99.99,,,-99.99,,2013-03-03 05:11:00,
2013-03-02 23:22:00,24.0,16.0,30.16,North,-999,-999.0,-999.0,71,-99.99,,,-99.99,,2013-03-03 05:22:00,
2013-03-02 23:32:00,23.0,16.0,30.15,North,-999,-999.0,-999.0,75,-99.99,,,-99.99,,2013-03-03 05:32:00,
2013-03-02 23:42:00,25.0,17.0,30.15,North,-999,-999.0,-999.0,72,-99.99,,,-99.99,,2013-03-03 05:42:00,
2013-03-02 23:52:00,25.0,17.0,30.15,North,-999,-999.0,-999.0,72,-99.99,,,-99.99,,2013-03-03 05:52:00,